Home   Weather   Sacramento   Past weeks

Flag for USA Past Weather in Sacramento, California, USA — Yesterday and Last 2 Weeks

Now
41 °F

Sunny.


Feels Like: 41 °F
Forecast: 34 / 52 °F
Wind: No wind

Location: Sacramento Executive Airport

Current Time: Feb 19, 2018 at 10:14:25 am

Latest Report: Feb 19, 2018 at 8:53 am


Visibility: 10 mi

Pressure: 30.01 "Hg

Humidity: 67%

Dew Point: 31 °F

Location of SacramentoLocation

Past Weather in Sacramento — Graph

°F

Sacramento Temperature Yesterday

Maximum temperature yesterday: 61 °F (at 12:53 pm)
Minimum temperature yesterday: 39 °F (at 11:53 pm)
Average temperature yesterday: 51 °F

High & Low Weather Summary for the Past Weeks

 TemperatureHumidityPressure
High73 °F (Feb 5, 3:53 pm)100% (Feb 4, 9:53 pm)30.30 "Hg (Feb 4, 9:53 pm)
Low32 °F (Feb 19, 4:53 am)23% (Feb 15, 4:53 pm)29.75 "Hg (Feb 11, 3:53 pm)
Average51 °F67%30.07 "Hg
* Reported Feb 4 8:53 am — Feb 19 8:53 am, Sacramento. Weather by CustomWeather, © 2018

Note: Actual official high and low records may vary slightly from our data, if they occured in-between our weather recording intervals... More about our weather records

Advertising

Sacramento Weather History for the Previous 24 Hours

Scroll right to see more
 ConditionsComfort  
Time TempWeatherWind HumidityBarometerVisibility
8:53 am
Mon, Feb 19
41 °FSunny.No wind67%30.01 "Hg10 mi
7:53 am35 °FSunny.No wind78%29.98 "Hg10 mi
6:53 am32 °FSunny.No wind82%29.96 "Hg10 mi
5:53 am34 °FClear.No wind82%29.93 "Hg10 mi
4:53 am32 °FClear.No wind85%29.92 "Hg10 mi
3:53 am34 °FClear.No wind79%29.93 "Hg10 mi
2:53 am33 °FClear.3 mph78%29.93 "Hg10 mi
1:53 am34 °FClear.5 mph79%29.93 "Hg10 mi
12:53 am37 °FClear.No wind67%29.92 "Hg10 mi
11:53 pm
Sun, Feb 18
39 °FClear.5 mph65%29.93 "Hg10 mi
10:53 pm41 °FClear.3 mph62%29.92 "Hg10 mi
9:53 pm44 °FClear.12 mph55%29.91 "Hg10 mi
8:53 pm45 °FClear.5 mph51%29.90 "Hg10 mi
7:53 pm46 °FClear.14 mph50%29.89 "Hg10 mi
6:53 pm49 °FClear.20 mph41%29.88 "Hg10 mi
5:53 pm51 °FClear.16 mph42%29.87 "Hg10 mi
4:53 pm54 °FSunny.22 mph37%29.86 "Hg10 mi
3:53 pm57 °FPassing clouds.20 mph39%29.85 "Hg10 mi
2:53 pm58 °FSunny.23 mph39%29.86 "Hg10 mi
1:53 pm60 °FPassing clouds.17 mph38%29.87 "Hg10 mi
12:53 pm61 °FSunny.16 mph31%29.89 "Hg10 mi
11:53 am59 °FSunny.14 mph46%29.93 "Hg10 mi
10:53 am58 °FSunny.10 mph54%29.95 "Hg10 mi
Weather by CustomWeather, © 2018

See weather overview